Flag for Canada Weather past 2 weeks in St. John's, Newfoundland and Labrador, Canada

Now
72 °F

Broken clouds.


Feels Like: 77 °F
Forecast: 44 / 62 °F
Wind: 15 mph from Southwest

Location: St. John's

Current Time: May 26, 2015 at 1:48:58 PM

Latest Report: May 26, 2015 at 1:30 PM


Visibility: 15 mi

Pressure: 30.22 "Hg

Humidity: 44%

Dew point: 48 °F

Location of St. John'sLocation

Historic Weather in St. John's — Graph

°F

St. John's temperature yesterday

Maximum temperature yesterday: 66 °F (at 1:30 PM)
Minimum temperature yesterday: 46 °F (at 1:30 AM)
Average temperature yesterday: 54 °F

Past Weeks' High & Low Weather Summary

 TemperatureHumidityPressure
High68 °F (May 26, 12:30 PM)100% (May 11, 12:30 PM)30.51 "Hg (May 11, 12:30 PM)
Low28 °F (May 11, 8:30 PM)32% (May 15, 1:30 PM)29.33 "Hg (May 13, 6:30 AM)
Average45 °F78%30.01 "Hg
* Reported May 11 12:30 PM — May 26 12:30 PM, St. John's, Weather by CustomWeather, © 2015

Note: Actual official high and low records may vary slightly from our data, if they occured in-between our weather recording intervals... More about our weather records

Advertising

St. John's weather history for previous 24 hours

 ConditionsComfort  
Time TempWeatherWind HumidityBarometerVisibility
12:30 PM
Tue, May 26
68 °FBroken clouds.17 mph49%30.22 "Hg15 mi
11:30 AM64 °FBroken clouds.18 mph56%30.23 "Hg15 mi
10:30 AM63 °FBroken clouds.14 mph56%30.23 "Hg15 mi
9:30 AM57 °FPartly sunny.13 mph63%30.23 "Hg15 mi
8:30 AM54 °FPartly sunny.16 mph72%30.21 "Hg15 mi
7:30 AM57 °FPartly sunny.12 mph63%30.19 "Hg15 mi
6:30 AM46 °FPartly sunny.15 mph93%30.19 "Hg15 mi
5:30 AM45 °FPassing clouds.18 mph93%30.19 "Hg15 mi
4:30 AM45 °FPassing clouds.15 mph93%30.18 "Hg15 mi
3:30 AM45 °FPassing clouds.13 mph93%30.17 "Hg15 mi
2:30 AM45 °FPassing clouds.13 mph93%30.17 "Hg15 mi
1:30 AM45 °FPassing clouds.14 mph87%30.17 "Hg15 mi
12:30 AM50 °FPassing clouds.14 mph76%30.17 "Hg15 mi
11:30 PM
Mon, May 25
50 °FPassing clouds.17 mph76%30.18 "Hg15 mi
10:30 PM48 °FPassing clouds.14 mph82%30.19 "Hg15 mi
9:30 PM50 °FPassing clouds.16 mph76%30.19 "Hg15 mi
8:30 PM54 °FBroken clouds.12 mph72%30.17 "Hg15 mi
7:30 PM57 °FPartly sunny.14 mph63%30.16 "Hg15 mi
6:30 PM61 °FBroken clouds.13 mph59%30.15 "Hg15 mi
5:30 PM63 °FBroken clouds.18 mph56%30.15 "Hg15 mi
4:30 PM63 °FBroken clouds.22 mph56%30.15 "Hg15 mi
3:30 PM64 °FBroken clouds.24 mph49%30.16 "Hg15 mi
2:30 PM64 °FPartly sunny.28 mph49%30.16 "Hg15 mi
1:30 PM66 °FBroken clouds.22 mph46%30.16 "Hg15 mi
Weather by CustomWeather, © 2015

See weather overviewHow to use our weather pages